📊 Raw Sensor Data
Showing records 38001 to 38025 of 84,922 total
| ID | Distance (ft) | Battery V | Battery A | Int Temp (°F) | Int Humid (%) | Ext Temp (°F) | Solar V | RSSI | SNR | Time Stamp |
|---|---|---|---|---|---|---|---|---|---|---|
| 46934 | 15.3 | 3.86 | 0 | 82 | 44 | 80 | 5.10 | -69 | 8 | 07/21/2025 12:30 PM |
| 46933 | 15.3 | 3.86 | 0 | 80 | 44 | 79 | 5.10 | -69 | 8 | 07/21/2025 12:00 PM |
| 46932 | 15.3 | 3.89 | 0 | 79 | 44 | 80 | 5.10 | -71 | 7 | 07/21/2025 11:45 AM |
| 46931 | 15.3 | 3.86 | 0 | 78 | 44 | 79 | 5.10 | -69 | 8 | 07/21/2025 11:30 AM |
| 46930 | 15.3 | 3.86 | 0 | 78 | 44 | 78 | 5.10 | -70 | 8 | 07/21/2025 11:15 AM |
| 46929 | 15.3 | 4.09 | 0 | 78 | 44 | 79 | 5.10 | -69 | 8 | 07/21/2025 11:00 AM |
| 46928 | 15.3 | 3.86 | 0 | 78 | 43 | 79 | 5.10 | -68 | 7 | 07/21/2025 10:45 AM |
| 46927 | 15.3 | 3.86 | 0 | 76 | 43 | 79 | 5.10 | -69 | 7 | 07/21/2025 10:30 AM |
| 46926 | 15.3 | 3.86 | 0 | 74 | 44 | 74 | 5.10 | -69 | 9 | 07/21/2025 10:15 AM |
| 46925 | 15.2 | 3.97 | 0 | 74 | 44 | 74 | 5.10 | -69 | 8 | 07/21/2025 10:00 AM |
| 46924 | 15.3 | 3.86 | 0 | 73 | 43 | 71 | 5.10 | -68 | 8 | 07/21/2025 09:45 AM |
| 46923 | 15.3 | 3.86 | 0 | 72 | 43 | 73 | 5.10 | -70 | 8 | 07/21/2025 09:30 AM |
| 46922 | 15.2 | 3.86 | 0 | 70 | 44 | 71 | 5.10 | -69 | 8 | 07/21/2025 09:15 AM |
| 46921 | 15.2 | 3.86 | 0 | 70 | 44 | 72 | 5.10 | -70 | 8 | 07/21/2025 09:00 AM |
| 46920 | 15.3 | 3.88 | 0 | 69 | 44 | 72 | 5.10 | -68 | 8 | 07/21/2025 08:45 AM |
| 46919 | 15.2 | 4.00 | 0 | 68 | 44 | 68 | 5.10 | -69 | 8 | 07/21/2025 08:30 AM |
| 46918 | 15.2 | 3.86 | 0 | 66 | 44 | 69 | 5.10 | -69 | 8 | 07/21/2025 08:15 AM |
| 46917 | 15.2 | 3.87 | 0 | 66 | 44 | 69 | 5.10 | -69 | 8 | 07/21/2025 08:00 AM |
| 46916 | 15.2 | 3.86 | 0 | 65 | 43 | 68 | 5.10 | -70 | 8 | 07/21/2025 07:45 AM |
| 46915 | 15.2 | 3.93 | 30 | 64 | 43 | 67 | 4.50 | -71 | 7 | 07/21/2025 07:30 AM |
| 46914 | 15.2 | 3.98 | 0 | 63 | 43 | 68 | 4.50 | -70 | 9 | 07/21/2025 07:15 AM |
| 46913 | 15.1 | 3.93 | 0 | 61 | 42 | 66 | 4.50 | -69 | 8 | 07/21/2025 07:00 AM |
| 46912 | 15.1 | 3.90 | 0 | 60 | 42 | 64 | 4.50 | -69 | 7 | 07/21/2025 06:45 AM |
| 46911 | 15.0 | 3.71 | 0 | 58 | 43 | 62 | 4.50 | -69 | 8 | 07/21/2025 06:30 AM |
| 46910 | 15.0 | 3.68 | -8 | 57 | 43 | 59 | 4.50 | -70 | 8 | 07/21/2025 06:15 AM |